#timestamp,LO_Frequency,Hit,StdDev 
1610550015.2,286047036.6,N
1610550035.0,286047034.9,N
1610550035.9,286047034.9,N
1610550055.7,286047040.5,N
1610550075.6,286047044.4,N
1610550095.4,286047046.6,N
1610550115.3,286047052.3,N
1610550135.1,286047049.2,N
1610550155.8,286047051.4,N
1610550175.7,286047053.8,N
1610550195.5,286047048.2,Y
1610550215.4,286047004.5,P
1610550235.2,286047006.8,N
1610550285.1,286047070.8,E
1610550295.9,286046965.9,N
1610550315.7,286046931.1,P
1610550335.6,286046933.5,P
1610550355.4,286046931.9,Y
1610550375.2,286046985.0,P
1610550395.1,286046982.4,N
1610550396.0,286046982.4,N
1610550415.8,286046987.2,N
1610550435.7,286046984.3,N
1610550455.5,286046986.3,N
1610550475.3,286046988.3,N
1610550495.2,286046989.6,N
1610550515.0,286046990.5,N
1610550515.9,286046990.5,N
1610550535.7,286046994.3,N
1610550555.6,286046995.8,N
1610550575.4,286046990.3,N
1610550595.3,286046994.8,N
1610550615.1,286046996.3,N
1610550635.8,286046993.5,N
1610550655.7,286046995.0,N
1610550675.5,286046994.4,N
1610550695.4,286046990.1,N
1610550715.2,286046996.3,N
1610550735.0,286046997.4,N
1610550735.9,286046997.4,N
1610550755.8,286047001.1,N
1610550775.6,286046995.2,N
1610550795.4,286047001.8,N
1610550815.3,286047008.5,N
1610550835.1,286047009.3,N
1610550855.9,286047010.8,N
1610550875.7,286047009.7,N
1610550895.5,286047008.8,N
1610550915.4,286047004.8,N
1610550935.2,286047014.8,N
1610550955.0,286047013.0,N
1610550955.9,286047013.0,N
1610550975.8,286047011.2,N
1610550995.6,286047011.8,N
1610551015.5,286047020.1,N
1610551035.3,286047017.4,N
1610551055.1,286047019.0,N
1610551075.9,286047019.5,N
1610551095.7,286047015.7,N
1610551115.5,286047019.2,N
1610551135.4,286047018.6,N
1610551155.2,286047016.9,N
1610551175.1,286047015.1,N
1610551176.0,286047015.1,N
1610551195.8,286047011.7,N
1610551215.6,286047012.2,N
1610551235.5,286047010.5,N
1610551255.3,286047006.6,N
1610551275.1,286047013.6,N
1610551295.9,286047012.3,N
1610551315.7,286047007.9,N
1610551335.6,286047005.7,N
1610551355.4,286047003.5,N
1610551375.2,286047003.7,N
1610551395.1,286047008.9,N
1610551396.0,286047008.9,N
1610551415.8,286047005.0,N
1610551435.7,286047003.6,N
1610551455.5,286047008.9,N
1610551475.4,286047006.8,N
1610551495.2,286047008.6,N
1610551515.0,286047014.7,N
1610551515.9,286047014.7,N
1610551535.8,286047024.3,Y
1610551555.6,286047009.3,P
1610551575.5,286047009.1,P
1610551595.3,286047011.9,P
1610551615.2,286046999.9,N
1610551635.9,286047001.1,N
1610551655.7,286046999.2,N
1610551675.6,286046995.7,N
1610551695.4,286046992.8,N
1610551715.2,286046995.4,N
1610551735.1,286046992.9,N
1610551736.0,286046992.9,N
1610551755.8,286046987.5,N
1610551775.7,286046982.8,N
1610551795.5,286046979.0,N
1610551815.3,286046982.1,N
1610551835.2,286046987.2,N
1610551855.0,286046986.2,N
1610551855.9,286046986.2,N
1610551875.8,286046985.0,N
1610551895.6,286046987.7,N
1610551915.4,286046991.7,N
1610551935.3,286046991.4,N
1610551955.1,286046985.6,N
1610551975.8,286046990.6,N
1610551995.7,286046992.9,N
1610552015.5,286046982.2,N
1610552035.4,286046981.0,N
1610552055.2,286046982.4,N
1610552075.0,286046975.8,N
1610552075.9,286046975.8,N
1610552095.8,286046976.9,N
1610552115.6,286046973.0,Y
1610552135.5,286046979.7,P
1610552155.3,286046980.9,P
1610552175.1,286046980.0,P
1610552195.9,286046980.2,Y
1610552215.7,286047002.3,P
1610552235.5,286047001.4,N
1610552255.4,286047007.6,N
1610552275.2,286047016.1,N
1610552295.1,286046991.1,N
1610552296.0,286046991.1,N
1610552315.8,286046998.6,N
1610552335.6,286047004.0,N
1610552355.5,286046998.3,N
1610552375.3,286047000.3,N
1610552395.1,286046999.7,N
1610552415.9,286047000.2,N
1610552435.7,286047009.4,N
1610552455.6,286047008.0,N
1610552475.4,286047004.5,N
1610552495.2,286047009.1,N
1610552515.1,286047011.6,N
1610552516.0,286047011.6,N
1610552535.8,286047013.3,N
1610552555.6,286047017.9,N
1610552575.5,286047015.4,N
1610552595.3,286047018.6,N
1610552615.2,286047015.9,N
1610552635.9,286047015.6,N
1610552655.7,286047014.2,N
1610552675.6,286047013.4,N
1610552695.4,286047012.8,N
1610552715.2,286047016.0,N
1610552735.1,286047023.1,N
1610552736.0,286047023.1,N
1610552755.8,286047025.0,N
1610552775.7,286047018.9,N
1610552795.5,286047016.1,N
1610552815.3,286047023.5,N
1610552835.2,286047019.4,N
1610552855.0,286047024.7,N
1610552855.9,286047024.7,Y
1610552875.8,286047012.7,P
1610552895.6,286047009.5,P
1610552915.4,286047011.6,P
1610552935.3,286047009.1,Y
1610552955.1,286046993.3,P
1610552975.8,286047004.7,N
1610552995.7,286047008.3,N
1610553015.5,286047005.7,N
1610553035.4,286047004.7,N
1610553055.2,286047006.6,N
1610553075.0,286047012.9,N
1610553075.9,286047012.9,N
1610553095.8,286047011.9,N
1610553115.6,286047008.6,N
1610553135.5,286047021.6,Y
1610553155.3,286047012.6,P
1610553175.1,286047013.7,P
1610553195.9,286047013.5,P
1610553215.7,286047012.3,Y
1610553235.5,286047001.1,P
1610553255.4,286047001.2,N
1610553275.2,286047003.6,N
1610553295.1,286046999.7,N
1610553296.0,286046999.7,N
1610553315.8,286046997.7,N
1610553335.6,286046993.3,N
1610553355.5,286046990.2,N
1610553375.3,286046996.3,N
1610553395.2,286046999.5,N
1610553415.9,286046996.2,N
1610553435.7,286046990.9,N
1610553455.6,286046991.9,N
1610553475.4,286046990.4,N
1610553495.3,286046994.7,N
1610553515.1,286046992.4,N
1610553516.0,286046992.4,N
1610553535.8,286046994.3,N
1610553555.7,286046995.1,N
1610553575.5,286046994.3,N
1610553595.3,286046985.3,N
